Location: Charlotte
(35.2269°N, 80.8433°W)
Time: 04:25:48
(UTC-04:00)

ISS - Visible Passes

Search period start: 04 July 2015 00:00
Search period end: 14 July 2015 00:00
Orbit: 398 x 403 km, 51.6° (Epoch: 03 July)

Date Brightness Start Highest point End Pass type
(mag) Time Alt. Az. Time Alt. Az. Time Alt. Az.
10 Jul -1.9 05:38:20 10° SSW 05:41:14 31° SE 05:44:10 10° ENE visible
11 Jul -0.9 04:46:21 11° SSE 04:47:48 15° SE 04:49:44 10° E visible
12 Jul -3.4 05:27:38 14° SW 05:30:20 89° SE 05:33:36 10° NE visible
13 Jul -2.4 04:36:15 34° SSE 04:36:48 37° SE 04:39:51 10° ENE visible
